Location: Fornova de Taro
(44.7000°N, 10.1000°E)
Time: 23:27:21
(UTC+00:00)

USA 307 - Pass Details

Date: 26 May 2022
Orbit: 552 x 554 km, 54.0° (Epoch: 17 June)

Event Time Altitude Azimuth Distance (km) Brightness Sun altitude
Exits shadow 00:12:06 61° 100° (E) 633 3.0 -23.0°
Drops below altitude 10° 00:15:48 10° 59° (ENE) 1,842 6.1 -22.8°
Sets 00:18:03 0° 56° (ENE) 2,741 7.1 -22.7°
